Location: Hickory_CSC
(35.7330°N, 81.3330°W)
Time: 10:31:45
(UTC-04:00)

Cosmos 1356 Rocket - Visible Passes

Search period start: 19 April 2014 00:00
Search period end: 29 April 2014 00:00
Orbit: 549 x 610 km, 81.2° (Epoch: 18 April)

Date Brightness Start Highest point End Pass type
(mag) Time Alt. Az. Time Alt. Az. Time Alt. Az.
19 Apr 6.3 04:14:16 10° NE 04:16:38 15° ENE 04:19:02 10° ESE visible
19 Apr 4.1 05:50:15 10° NNW 05:53:53 32° W 05:57:34 10° SSW visible
20 Apr 5.8 04:18:33 10° NNE 04:21:42 21° ENE 04:24:52 10° SE visible
20 Apr 4.6 05:55:35 10° NW 05:58:46 22° W 06:01:59 10° SW visible
21 Apr 5.2 04:23:06 10° NNE 04:26:43 30° ENE 04:30:03 12° SE visible
21 Apr 5.0 06:01:09 10° NW 06:03:37 16° W 06:06:05 10° SW visible
22 Apr 4.4 04:27:47 10° N 04:31:43 44° E 04:33:40 26° SE visible
22 Apr 5.4 06:07:31 10° WNW 06:08:26 11° W 06:09:21 10° W visible
23 Apr 3.6 04:32:36 10° N 04:36:41 67° E 04:37:35 50° SE visible
24 Apr 3.2 04:37:30 10° N 04:41:37 82° W 04:41:40 81° WSW visible
25 Apr 3.7 04:42:30 10° NNW 04:45:54 48° WNW 04:45:54 48° WNW visible
26 Apr 6.2 03:11:56 10° NE 03:13:55 14° ENE 03:13:55 14° ENE visible
26 Apr 4.5 04:47:37 10° NNW 04:50:13 30° WNW 04:50:13 30° WNW visible
27 Apr 5.9 03:16:05 10° NNE 03:18:19 19° ENE 03:18:19 19° ENE visible
27 Apr 5.1 04:52:51 10° NW 04:54:37 20° WNW 04:54:37 20° WNW visible
28 Apr 5.7 03:20:33 10° NNE 03:22:47 23° NE 03:22:47 23° NE visible
28 Apr 5.6 04:58:17 10° NW 04:59:04 13° WNW 04:59:04 13° WNW visible
